Flag for Austria Weather past 2 weeks in Bruck an der Mur, Styria, Austria

Now
63 °F

Partly sunny.


Feels Like: 63 °F
Forecast: 65 / 91 °F
Wind: 1 mph from North

Location: Zeltweg

Current Time: Jul 6, 2015 at 7:13:26 AM

Latest Report: Jul 6, 2015 at 6:50 AM


Visibility: 15 mi

Pressure: 30.15 "Hg

Humidity: 77%

Dew point: 55 °F

Location of Bruck an der MurLocation

Historic Weather in Bruck an der Mur — Graph

°F

Bruck an der Mur temperature yesterday

Maximum temperature yesterday: 91 °F (at 4:50 PM)
Minimum temperature yesterday: 59 °F (at 5:50 AM)
Average temperature yesterday: 78 °F

Past Weeks' High & Low Weather Summary

 TemperatureHumidityPressure
High91 °F (Jul 5, 4:50 PM)100% (Jun 26, 4:50 AM)30.39 "Hg (Jun 26, 4:50 AM)
Low41 °F (Jun 25, 5:50 AM)20% (Jul 5, 3:50 PM)29.80 "Hg (Jun 23, 4:50 AM)
Average66 °F60%30.15 "Hg
* Reported Jun 21 5:50 AM — Jul 6 5:50 AM, Bruck an der Mur, Weather by CustomWeather, © 2015

Note: Actual official high and low records may vary slightly from our data, if they occured in-between our weather recording intervals... More about our weather records

Advertising

Bruck an der Mur weather history for previous 24 hours

 ConditionsComfort  
Time TempWeatherWind HumidityBarometerVisibility
5:50 AM
Mon, Jul 6
61 °FPassing clouds.1 mph77%30.15 "Hg16 mi
4:50 AM59 °FPassing clouds.1 mph82%30.12 "Hg16 mi
10:50 PM
Sun, Jul 5
73 °FPassing clouds.2 mph50%30.12 "Hg12 mi
9:50 PM73 °FPassing clouds.3 mph50%30.12 "Hg16 mi
8:50 PM81 °FPassing clouds.2 mph32%30.09 "Hg19 mi
7:50 PM84 °FPassing clouds.3 mph31%30.09 "Hg19 mi
6:50 PM88 °FPassing clouds.7 mph29%30.09 "Hg25 mi
5:50 PM90 °FPassing clouds.9 mph27%30.09 "Hg25 mi
4:50 PM91 °FPassing clouds.5 mph20%30.09 "Hg25 mi
3:50 PM90 °FPassing clouds.3 mph20%30.12 "Hg25 mi
2:50 PM90 °FScattered clouds.5 mph24%30.12 "Hg25 mi
1:50 PM88 °FScattered clouds.5 mph24%30.15 "Hg22 mi
12:50 PM86 °FPartly sunny.3 mph29%30.18 "Hg19 mi
11:50 AM82 °FPassing clouds.1 mph42%30.18 "Hg19 mi
10:50 AM75 °FPartly sunny.2 mph57%30.21 "Hg19 mi
9:50 AM73 °FPartly sunny.2 mph61%30.21 "Hg16 mi
8:50 AM66 °FPartly sunny.2 mph73%30.24 "Hg16 mi
7:50 AM63 °FPartly sunny.1 mph77%30.24 "Hg16 mi
Weather by CustomWeather, © 2015

See weather overviewHow to use our weather pages